OPS 4682 DEB, 19576

Orbit data source: Space-Track

OPS 4682 DEB, 19576 is space debris in LEO originally from a launch on Sat, 03 Apr 1965 UTC launched from the Air Force Western Test Range (AFWTR). Debris objects in space refer to the collection of defunct objects orbiting the Earth. Examples of debris include non-operational satellites, rocket bodies, and fragments generated from explosions, collisions, or faulty payload assembly.

Loading next visibility...
Identifier
19576, 1965-027AV
Orbit
LEO
Country
Flag of USUS
Related business
Manufacturer
Unknown
Mission
Spacecraft
Bus & Motor
Unknown
Mass
Unknown
Launch date (UTC)
1965-04-03 (61 years ago)
Launch vehicle
Unknown
Launch site
Air Force Western Test Range (AFWTR)
Object type
Payload
Rocket body
Debris
Shape & HBR
Unknown shape, 0.1 m
Radar Cross Section
Medium (>0.1 m² and <1 m²)

Expand to show TLE details & history
Last TLE update: 1 day ago

TLE from 1 day ago
0 OPS 4682 DEB
1 19576U 65027AV  26206.90936240 -.00000222  00000-0 -75567-3 0  9998
2 19576  90.2399   9.9437 0028717 112.7975  40.9480 13.00740467803380
Epoch: 2026-07-25T21:49Z
TLE epoch observation values (Epoch: 2026-07-25T21:49:28.911Z)
Latitude
26.06807°
Longitude
-80.92487°
Altitude
1,245.812 km
Speed
7.242 km/s
True Right ascension
12h 40m 14s
True Declination
25° 56' 29"
Sunlit
Object was in daylight at epoch
Visualization orbit readout
Latitude
Unknown
Longitude
Unknown
Altitude
Unknown
Speed
Unknown
Apparent Right ascension
Unknown
Apparent Declination
Unknown
Sunlit
N/A
Visualization observer readout
Local Sidereal Time
20:30:17
Azimuth
Unknown
Elevation
Unknown
Doppler factor
Unknown
Orbital elements
Apogee altitude
1,278.237 km
Perigee altitude
1,234.389 km
Semi-major axis
7,634.45 km
Eccentricity
0.00287
Inclination
90.2399°
RAAN
9.9437°
Arg. of periapsis
112.7975°
True anomaly
41.16425°
Mean anomaly
40.948°
Eccentric anomaly
41.05607°
Mean motion
3.25369 °/min
Orbital period
110.64 mins
BSTAR
-0.00075567
Loading maneuver chart data...
Computing Atmospheric mass density...
Loading historical data...
Loading historical data...
Loading historical data...
Loading historical data...
Loading historical data...
Loading historical data...
Loading historical data...

Documentation

Showing up to 5 results
|